Regional Weather Roundup
Issued by NWS

Home | Current Version | Previous Version | Text Only | Print | Product List | Glossary On
Versions: 1 2 3 4 5 6 7 8 9 10 11 12 13 14 15 16 17 18 19 20 21 22 23 24 25 26 27 28 29 30 31 32 33 34 35 36 37 38 39 40 41 42 43 44 45 46 47 48 49 50
000
ASUS42 KFFC 290510
RWRGA
WEATHER ROUNDUP FOR GEORGIA
NATIONAL WEATHER SERVICE PEACHTREE CITY GA
100 AM EDT THU JUN 29 2017

NOTE: "FAIR" INDICATES FEW OR NO CLOUDS BELOW 12,000 FEET WITH NO
SIGNIFICANT WEATHER AND/OR OBSTRUCTIONS TO VISIBILITY.

* = USE WITH CAUTION. THE STATIONS MARKED WITH AN ASTERISK MAY NOT
REPORT WEATHER SUCH AS PRECIPITATION, FOG, OR THUNDER AND ARE NOT
QUALITY CONTROLLED BY NWS.

THE REMARK "TC" DENOTES TEMPERATURE READING IN DEGREES CELSIUS.

GAZ001>058-290600-
NORTH GEORGIA

CITY           SKY/WX    TMP DP  RH WIND       PRES   REMARKS
ATLANTA        MOCLDY    75  65  70 SE8       30.15S
ATHENS         CLEAR     70  67  90 S3        30.17S
CHAMBLEE       CLEAR     73  65  75 SE3       30.15S
PEACHTREE CITY MOCLDY    69  68  96 CALM      30.15S
ROME           CLEAR     69  67  93 W3        30.11S
WEST ATLANTA   CLEAR     76  66  71 SE3       30.14S
GAINESVILLE    CLEAR     71  64  78 E7        30.19S
CARTERSVILLE   CLEAR     70  67  90 CALM      30.13S


CITY           SKY/WX    TMP DP  RH WIND       PRES   REMARKS
DALTON*        CLEAR     72  64  78 S6        30.13R
MARIETTA       CLEAR     75  64  68 SE8       30.15S
CANTON*        CLEAR     72  66  83 CALM      30.17F
$$

GAZ059>098-102>109-290600-
CENTRAL GEORGIA

CITY           SKY/WX    TMP DP  RH WIND       PRES   REMARKS
AUGUSTA-BUSH   CLEAR     73  66  78 SE5       30.16S
AUGUSTA-DANIEL CLEAR     75  63  66 SE6       30.18S
COLUMBUS       CLOUDY    78  68  71 SE8       30.12S
MACON          CLOUDY    74  66  76 SE6       30.15S
ROBINS AFB     CLOUDY    76  67  74 SE6       30.14S


CITY           SKY/WX    TMP DP  RH WIND       PRES   REMARKS
LAGRANGE*      CLOUDY    75  71  86 SE6       30.13S
SYLVANIA*      PTCLDY    73  68  84 E3        30.18F
MILLEDGEVILLE* PTCLDY    75  68  78 S3        30.16S
$$

GAZ099>101-110>166-290600-
SOUTH GEORGIA

CITY           SKY/WX    TMP DP  RH WIND       PRES   REMARKS
SAVANNAH       MOCLDY    77  70  79 E6        30.15F
VALDOSTA       PTCLDY    75  72  90 E3        30.12S
ALMA           PTCLDY    74  70  87 CALM      30.14F
ST SIMONS      LGT RAIN  78  75  90 E8        30.13F
FT STEWART     PTCLDY    73  70  89 NE3       30.13F
ALBANY         CLEAR     78  71  79 SE9       30.14S
HUNTER AFB     PTCLDY    79  72  79 E8        30.13F
MOODY AFB      PTCLDY    74  71  88 CALM      30.11S
BRUNSWICK      MOCLDY    75  75 100 CALM      30.14F


CITY           SKY/WX    TMP DP  RH WIND       PRES   REMARKS
BAINBRIDGE*    CLOUDY    79  77  94 SE5       30.10F
MOULTRIE*      CLEAR     75  72  88 E5        30.13S
VIDALIA*       MOCLDY    73  70  88 E3        30.16F
WAYCROSS*      PTCLDY    76  76 100 NE3       30.13F
DOUGLAS*       PTCLDY    75  68  78 E5        30.15F
$$




USA.gov is the U.S. government's official web portal to all federal, state and local government web resources and services.